Regional Weather Roundup
Issued by NWS

Home | Current Version | Previous Version | Graphics & Text | Print | Product List | Glossary On
Versions: 1 2 3 4 5 6 7 8 9 10 11 12 13 14 15 16 17 18 19 20 21 22 23 24 25 26 27 28 29 30 31 32 33 34 35 36 37 38 39 40 41 42 43 44 45 46 47 48 49 50
000
ASUS43 KTOP 201508
RWRKS

WEATHER ROUNDUP FOR KANSAS
NATIONAL WEATHER SERVICE GOODLAND KS
900 AM CST SAT DEC 20 2014

NOTE:  "FAIR" INDICATES FEW OR NO CLOUDS BELOW 12,000 FEET WITH NO
SIGNIFICANT WEATHER AND/OR OBSTRUCTIONS TO VISIBILITY.

KSZ001>006-013>018-027>032-041>047-201600-
NORTHWEST KANSAS

CITY           SKY/WX    TMP DP  RH WIND       PRES   REMARKS
GOODLAND       CLEAR     33  26  75 W7        30.02F
HAYS           SUNNY     28  19  69 W5        30.08F
HILL CITY      CLEAR     29  25  85 W5        30.07S
RUSSELL        SUNNY     30  29  96 SW8       30.07F FOG
$$

KSZ061>065-074>080-084>089-201600-
SOUTHWEST KANSAS

CITY           SKY/WX    TMP DP  RH WIND       PRES   REMARKS
DODGE CITY     SUNNY     31  29  92 SW12      30.09S FOG     WCI  22
ELKHART          N/A    N/A N/A N/A MISG        N/A
GARDEN CITY    CLEAR     26  25  96 SW9       30.07S FOG
GREAT BEND     SUNNY     30  27  86 SW5       30.11S
LIBERAL        CLOUDY    28  25  86 SW12      30.11S VSB 1/4 WCI  18
PRATT          FOG       32  32 100 SW6       30.12S VSB 1/2
$$

KSZ066>073-081>083-090>101-201600-
SOUTHEAST KANSAS

CITY           SKY/WX    TMP DP  RH WIND       PRES   REMARKS
CHANUTE        CLOUDY    38  34  85 S9        30.22F
COFFEYVILLE    CLOUDY    38  35  89 S5        30.24S
HUTCHINSON     PTSUNNY   35  33  92 S7        30.14S FOG
MEDICINE LODGE   N/A     34  34 100 S6        30.14S
NEWTON         PTSUNNY   36  30  80 SW9       30.15F
PARSONS        CLOUDY    39  35  86 S5        30.24F
WICHITA INTL   PTSUNNY   38  35  89 S12       30.15F FOG     WCI  30
WICHITA JABRA  MOSUNNY   37  35  92 S12       30.15F WCI  29
WICHITA MCCONL MOSUNNY   38  36  91 S12       30.16F WCI  31
WINFIELD       MOSUNNY   39  35  86 S7        30.19F
$$

KSZ007>012-019>026-033>040-048>060-102>105-201600-
NORTHEAST KANSAS

CITY           SKY/WX    TMP DP  RH WIND       PRES   REMARKS
CONCORDIA      SUNNY     30  29  96 SW5       30.09R FOG
EMPORIA        SUNNY     34  32  92 S13       30.16S WCI  25
LAWRENCE       SUNNY     35  31  85 S10       30.18S WCI  27
MANHATTAN      SUNNY     35  33  92 SW10      30.13S FOG     WCI  27
MARYSVILLE     CLOUDY    32  32 100 SW7       30.11S FOG
OLATHE IND     SUNNY     34  31  88 S14       30.18F WCI  25
OLATHE EXE     CLOUDY    34  32  92 S10       30.17F WCI  26
SALINA         FOG       32  31  96 S6        30.13S VSB 1/4
TOPEKA BILLARD SUNNY     36  31  82 S9        30.16S
TOPEKA FORBES  SUNNY     35  31  85 S12       30.15S WCI  27
$$


USA.gov is the U.S. government's official web portal to all federal, state and local government web resources and services.